TimePDT,TemperatureF,Dew PointF,Humidity,Sea Level PressureIn,VisibilityMPH,Wind Direction,Wind SpeedMPH,Gust SpeedMPH,PrecipitationIn,Events,Conditions,WindDirDegrees,DateUTC
12:53 AM,72.0,45.0,38,29.81,10.0,South,12.7,-,N/A,,Clear,170,2013-07-08 07:53:00
1:53 AM,71.1,48.9,45,29.81,10.0,South,13.8,-,N/A,,Clear,190,2013-07-08 08:53:00
2:53 AM,70.0,51.1,51,29.83,10.0,South,13.8,-,N/A,,Clear,190,2013-07-08 09:53:00
3:53 AM,69.1,51.1,53,29.85,10.0,South,15.0,-,N/A,,Clear,190,2013-07-08 10:53:00
4:53 AM,66.0,50.0,56,29.88,10.0,South,11.5,-,N/A,,Partly Cloudy,180,2013-07-08 11:53:00
5:53 AM,66.0,48.9,54,29.90,10.0,South,10.4,-,N/A,,Clear,180,2013-07-08 12:53:00
6:53 AM,68.0,48.0,49,29.92,10.0,South,12.7,-,N/A,,Clear,190,2013-07-08 13:53:00
7:53 AM,71.1,48.9,45,29.94,10.0,South,13.8,-,N/A,,Clear,190,2013-07-08 14:53:00
8:53 AM,73.0,48.9,42,29.95,10.0,South,11.5,-,N/A,,Clear,190,2013-07-08 15:53:00
9:53 AM,75.9,48.0,37,29.97,10.0,SSW,9.2,-,N/A,,Clear,200,2013-07-08 16:53:00
10:53 AM,78.1,46.9,33,29.97,10.0,Variable,6.9,-,N/A,,Clear,0,2013-07-08 17:53:00
11:53 AM,81.0,48.0,31,29.97,10.0,West,11.5,17.3,N/A,,Clear,260,2013-07-08 18:53:00
12:53 PM,82.9,46.9,28,29.96,10.0,Variable,5.8,16.1,N/A,,Clear,0,2013-07-08 19:53:00
1:53 PM,86.0,44.1,23,29.96,10.0,West,11.5,18.4,N/A,,Clear,260,2013-07-08 20:53:00
2:53 PM,87.1,39.9,19,29.95,10.0,SW,6.9,17.3,N/A,,Clear,230,2013-07-08 21:53:00
3:53 PM,89.1,39.9,18,29.94,10.0,WSW,12.7,17.3,N/A,,Clear,250,2013-07-08 22:53:00
4:53 PM,89.1,37.9,16,29.94,10.0,West,8.1,-,N/A,,Clear,260,2013-07-08 23:53:00
5:53 PM,90.0,37.0,15,29.94,10.0,West,10.4,16.1,N/A,,Clear,270,2013-07-09 00:53:00
6:53 PM,88.0,39.9,18,29.94,10.0,Calm,Calm,-,N/A,,Clear,0,2013-07-09 01:53:00
7:53 PM,86.0,41.0,20,29.95,10.0,WNW,5.8,-,N/A,,Clear,300,2013-07-09 02:53:00
8:34 PM,80.6,39.2,23,29.98,2.5,North,3.5,-,N/A,,Haze,350,2013-07-09 03:34:00
8:42 PM,78.8,39.2,24,29.99,8.0,North,4.6,-,N/A,,Clear,10,2013-07-09 03:42:00
8:53 PM,78.1,42.1,28,29.97,10.0,East,6.9,-,N/A,,Clear,90,2013-07-09 03:53:00
9:53 PM,73.0,46.9,39,29.98,10.0,East,8.1,-,N/A,,Clear,100,2013-07-09 04:53:00
10:53 PM,73.0,45.0,37,29.99,10.0,East,8.1,-,N/A,,Clear,100,2013-07-09 05:53:00
11:53 PM,70.0,45.0,41,30.00,10.0,ESE,4.6,-,N/A,,Clear,110,2013-07-09 06:53:00